Weather History for Glasgow, United Kingdom

Change the Weather History Date:

Wednesday, January 2, 2013

  Actual Average Record
Temperature  
Mean Temperature 45 °F -  
Max Temperature 51 °F 43 °F 51 °F (2013)
Min Temperature 39 °F 33 °F 14 °F (2002)
Degree Days  
Heating Degree Days 20    
Moisture  
Dew Point 45 °F    
Average Humidity 93    
Maximum Humidity 100    
Minimum Humidity 87    
Precipitation  
Precipitation 0.00 in - - ()
Sea Level Pressure  
Sea Level Pressure 29.98 in    
Wind  
Wind Speed 9 mph ()    
Max Wind Speed 24 mph    
Max Gust Speed -    
Visibility 5.2 miles    
Events Rain    
Averages and records for this station are not official NWS values.
T = Trace of Precipitation, MM = Missing Value Source: Averaged Metar Reports

Daily Weather History Graph

Daily Weather History Graph

Search for Another Location

Airport:

Trip Planner

Search our weather history database for the weather conditions in past years. The results will help you decide how hot, cold, wet, or windy it might be!

Date:

Astronomy

Jan. 02, 2013 Rise Set
Actual Time 8:47 AM GMT 3:56 PM GMT
Civil Twilight 8:01 AM GMT 4:42 PM GMT
Nautical Twilight 7:12 AM GMT 5:31 PM GMT
Astronomical Twilight 6:27 AM GMT 6:16 PM GMT
Moon 10:18 PM GMT (1/2) 10:23 AM GMT (1/2)
Length of Visible Light 8h 41m
Length of Day
7h 08m
Waning Gibbous, 77% of the Moon is Illuminated
Jan 2
Waning Gibbous
Jan 5
Last Quarter
Jan 11
New
Jan 18
First Quarter
Jan 27
Full

Hourly Weather History & Observations

Time (GMT) Temp. Windchill Dew Point Humidity Pressure Visibility Wind Dir Wind Speed Gust Speed Precip Events Conditions
12:20 AM 39.2 °F - 37.4 °F 93% 29.95 in - Calm Calm - N/A   Clear
12:50 AM 42.8 °F 38.0 °F 39.2 °F 87% 29.95 in - West 8.1 mph - N/A   Clear
1:20 AM 41.0 °F 35.8 °F 39.2 °F 93% 29.95 in - WSW 8.1 mph - N/A   Clear
1:50 AM 41.0 °F 35.8 °F 39.2 °F 93% 29.95 in 6.2 mi WSW 8.1 mph - N/A   Scattered Clouds
2:20 AM 41.0 °F 35.8 °F 39.2 °F 93% 29.98 in 6.2 mi WSW 8.1 mph - N/A   Mostly Cloudy
2:50 AM 41.0 °F 39.0 °F 37.4 °F 87% 29.98 in 6.2 mi West 3.5 mph - N/A   Partly Cloudy
3:20 AM 41.0 °F - 37.4 °F 87% 29.98 in - Variable 2.3 mph - N/A   Clear
3:50 AM 41.0 °F 39.0 °F 39.2 °F 93% 29.98 in 6.2 mi Variable 3.5 mph - N/A Rain Light Rain
4:20 AM 41.0 °F - 39.2 °F 93% 29.98 in 6.2 mi East 2.3 mph - N/A Rain Light Rain
4:50 AM 41.0 °F - 39.2 °F 93% 29.98 in 6.2 mi Calm Calm - N/A Rain Light Rain
5:20 AM 42.8 °F 39.3 °F 41.0 °F 93% 29.95 in 6.2 mi SSW 5.8 mph - N/A Rain Light Rain
5:50 AM 44.6 °F 39.2 °F 42.8 °F 93% 29.95 in 6.2 mi SSW 10.4 mph - N/A Rain Light Rain
6:20 AM 44.6 °F 40.2 °F 41.0 °F 87% 29.95 in 5.0 mi SW 8.1 mph - N/A Rain Light Rain
6:50 AM 44.6 °F 39.7 °F 41.0 °F 87% 29.95 in 4.3 mi SSW 9.2 mph - N/A Rain Light Rain
7:20 AM 44.6 °F 41.4 °F 41.0 °F 87% 29.95 in 3.1 mi South 5.8 mph - N/A Rain Light Rain
7:50 AM 42.8 °F 39.3 °F 41.0 °F 93% 29.95 in 3.1 mi South 5.8 mph - N/A Rain Light Rain
8:20 AM 42.8 °F 41.1 °F 41.0 °F 93% 29.95 in 2.8 mi Variable 3.5 mph - N/A Rain Rain
8:50 AM 44.6 °F 41.4 °F 42.8 °F 93% 29.95 in 3.7 mi SSW 5.8 mph - N/A Rain Light Rain
9:20 AM 44.6 °F 42.2 °F 42.8 °F 93% 29.95 in 3.7 mi West 4.6 mph - N/A   Light Drizzle
9:50 AM 46.4 °F 40.4 °F 44.6 °F 93% 29.95 in 5.6 mi SW 13.8 mph - N/A   Light Drizzle
10:20 AM 46.4 °F 40.1 °F 44.6 °F 93% 29.95 in 6.2 mi SW 15.0 mph - N/A   Mostly Cloudy
10:50 AM 48.2 °F - 46.4 °F 93% 29.95 in 6.2 mi SW 16.1 mph - N/A Rain Light Rain
11:20 AM 48.2 °F - 46.4 °F 93% 29.95 in 6.2 mi SW 15.0 mph - N/A Rain Light Rain
11:50 AM 48.2 °F - 46.4 °F 93% 29.95 in 6.2 mi SW 9.2 mph - N/A   Mostly Cloudy
12:20 PM 50.0 °F - 48.2 °F 94% 29.95 in 6.2 mi SW 9.2 mph - N/A Rain Light Rain
12:50 PM 50.0 °F - 48.2 °F 94% 29.95 in 6.2 mi SW 8.1 mph - N/A   Mostly Cloudy
1:20 PM 51.8 °F - 50.0 °F 94% 29.95 in 6.2 mi WSW 15.0 mph - N/A   Mostly Cloudy
1:50 PM 51.8 °F - 50.0 °F 94% 29.95 in 5.0 mi WSW 19.6 mph - N/A   Mostly Cloudy
2:20 PM 51.8 °F - 50.0 °F 94% 29.95 in 5.6 mi West 20.7 mph - N/A Rain Light Rain
2:50 PM 51.8 °F - 48.2 °F 88% 29.95 in 6.2 mi West 21.9 mph - N/A   Mostly Cloudy
3:20 PM 51.8 °F - 48.2 °F 88% 29.95 in 6.2 mi WSW 21.9 mph - N/A   Overcast
3:50 PM 50.0 °F - 50.0 °F 100% 29.98 in 5.0 mi WSW 20.7 mph - N/A   Overcast
4:20 PM 51.8 °F - 50.0 °F 94% 29.95 in 5.0 mi WSW 21.9 mph - N/A   Mostly Cloudy
4:50 PM 51.8 °F - 50.0 °F 94% 29.98 in 6.2 mi WSW 23.0 mph - N/A   Overcast
5:20 PM 51.8 °F - 50.0 °F 94% 29.98 in 3.7 mi WSW 21.9 mph - N/A Rain Light Rain
5:50 PM 51.8 °F - 50.0 °F 94% 29.98 in 5.6 mi WSW 24.2 mph - N/A Rain Light Rain
6:20 PM 51.8 °F - 50.0 °F 94% 30.01 in 3.7 mi SW 19.6 mph - N/A Rain Light Rain
6:50 PM 51.8 °F - 50.0 °F 94% 30.01 in 6.2 mi WSW 18.4 mph - N/A   Overcast
7:20 PM 51.8 °F - 50.0 °F 94% 30.01 in 4.3 mi WSW 18.4 mph - N/A Rain Light Rain
7:50 PM 51.8 °F - 50.0 °F 94% 30.01 in 4.3 mi WSW 17.3 mph - N/A Rain Light Rain
8:20 PM 51.8 °F - 50.0 °F 94% 30.04 in 4.3 mi WSW 16.1 mph - N/A Rain Light Rain
8:50 PM 51.8 °F - 50.0 °F 94% 30.04 in 3.7 mi WSW 13.8 mph - N/A Rain Light Rain
9:20 PM 51.8 °F - 50.0 °F 94% 30.04 in 5.6 mi WSW 12.7 mph - N/A Rain Light Rain
9:50 PM 51.8 °F - 50.0 °F 94% 30.06 in 3.7 mi WSW 12.7 mph - N/A Rain Light Rain
10:20 PM 51.8 °F - 50.0 °F 94% 30.06 in 3.1 mi WSW 10.4 mph - N/A Rain Light Rain
10:50 PM 51.8 °F - 50.0 °F 94% 30.06 in 3.1 mi SW 11.5 mph - N/A Rain Light Rain
11:20 PM 51.8 °F - 50.0 °F 94% 30.09 in 6.2 mi SW 13.8 mph - N/A   Overcast
11:50 PM 51.8 °F - 50.0 °F 94% 30.09 in 6.2 mi SW 15.0 mph - N/A   Light Drizzle